CAPE
410 1221 1715 2288 1511 907 785 752 620 468 462 500 122 103 450 552 737 580 746 635 710 922 1263 1775 2922 2671 2522 2592 2294 2300 2791 2327 2512 2147 1810 1622 1594 1693 1838 1600 2038 1928 1821 1734 1391 1289 1458 1492 1693
761 1596 2081 872 854 741 629 154 401 588 658 635 168 193 365 764 849 796 820 721 804 855 1015 892 2845 2753 2397 2494 2395 2490 2352 2183 2312 2199 2017 1941 1962 1847 1639 1559 1387 1423 1486 1544 1536 1234 1239 1264 1285
360 1068 1289 681 555 712 455 17 316 265 369 591 456 379 440 722 663 649 764 766 786 842 646 1538 2764 1861 2053 2089 2068 1995 2119 2193 2078 2018 1825 1613 1471 1386 1296 1327 1336 1445 1317 1327 1360 1439 1430 1522 1413
912 1322 930 789 585 405 305 336 414 347 587 262 457 359 562 642 670 776 704 684 773 816 719 2315 1849 1543 1863 1939 1920 1792 1726 1617 1637 1583 1495 1420 1327 1304 1361 1151 1207 982 840 778 819 1070 1314 1415 1375
896 583 222 130 262 416 417 402 508 394 744 504 78 369 561 690 755 879 778 792 798 795 927 1564 2803 2522 2255 2016 1874 1939 1841 1769 1685 1664 1589 1359 1373 1394 1457 1460 1060 831 970 961 950 861 1252 1378 1313
88 462 50 39 80 329 551 511 705 883 779 628 491 310 792 862 935 886 770 920 613 779 856 1205 2303 2712 2326 1782 1977 1943 1808 1789 1911 1812 1798 1748 1533 1562 1399 1384 1182 1183 1191 1100 1255 1260 1359 1252 1269
7 109 42 2 50 143 410 702 741 894 885 781 566 678 752 832 980 865 841 817 671 834 1094 1403 1438 1789 2054 2168 2186 2003 2055 2108 1929 1786 1901 1722 1518 1551 1336 1101 1548 822 521 648 469 1064 1487 1276 1134
0 187 0 0 11 132 588 678 820 723 757 607 487 788 707 864 893 958 926 865 855 1140 1282 1509 1559 1669 1762 1847 2257 2177 2116 2087 1786 1960 1810 1571 1594 1569 1510 1193 1131 1224 1017 518 401 516 1046 1352 1110
0 11 7 0 34 157 741 749 797 615 652 679 543 635 808 790 783 970 973 885 1017 1086 1287 1481 1568 1412 1929 1909 2100 2200 2039 2065 1755 1939 1885 1794 963 1460 850 1214 1551 826 323 355 549 641 907 1150 1185
0 0 0 0 6 162 707 753 749 543 537 656 844 727 931 652 753 854 850 974 1088 1323 1087 860 942 1544 1573 1126 1945 1281 1378 904 1452 1252 1464 1191 624 445 840 1362 1502 671 135 47 127 335 421 846 948
0 0 0 4 85 308 562 813 837 758 599 573 837 1018 1092 734 527 612 702 810 776 952 963 715 891 1259 1232 711 818 1290 1387 718 852 1541 1550 1596 680 673 620 977 1226 1105 543 819 364 698 265 637 791
0 0 0 0 13 340 689 677 747 712 642 541 541 1018 1018 775 635 634 465 403 586 805 747 613 1058 1314 925 603 916 947 948 860 758 967 1202 756 1127 1337 2423 1489 1178 1742 1531 1350 970 1218 851 795 909
0 0 0 0 0 309 819 848 850 854 730 695 611 1025 1014 873 697 496 156 302 528 835 1001 940 1157 1386 1267 1539 862 1095 967 555 523 760 689 738 945 1405 1343 2511 1870 1926 1037 1452 1756 1576 1344 1112 990
0 0 0 0 24 494 747 740 1014 849 842 830 859 1151 1076 821 601 481 484 445 654 922 1260 1321 1262 1447 1420 1753 1287 2296 1599 925 787 630 236 658 1187 1366 1956 2057 1667 1852 1594 1080 1352 1693 1248 1225 1079
0 0 0 0 40 266 793 883 997 830 1011 863 1024 1163 1075 721 643 658 716 680 898 1142 1026 1399 1421 1341 1473 1508 1529 2042 1536 1139 1026 579 644 1090 1505 1525 1913 2242 2427 1550 1744 2264 1962 1763 1671 1457 1063
0 0 0 0 42 313 595 75 390 990 1090 960 890 1119 1105 803 683 754 916 1061 1141 1225 1310 1490 1180 1114 1559 1376 1473 2498 2329 1072 801 473 741 1400 1608 1650 2088 1955 1555 1142 1825 1160 1522 1375 2646 1713 1347
0 0 0 0 0 0 355 301 491 1069 1115 1109 994 988 1152 832 912 932 985 1082 1130 1412 1517 1684 1549 1280 1486 1720 2217 2402 1837 1659 888 702 997 1295 1559 1459 1904 1396 1296 1684 1657 1404 1443 1457 1798 1702 2021
0 0 0 0 0 0 1 58 35 701 1109 1117 1102 1026 1095 956 850 1045 1157 1137 1237 1437 1774 1957 1741 1728 1996 2899 2079 2691 1449 2325 1883 714 904 1177 1466 1320 2020 1208 1357 1249 1148 922 1306 1235 1255 1251 1562
0 0 0 0 0 3 18 93 151 238 1194 1056 1021 1144 1060 1044 960 958 1123 1225 1317 1516 1832 2155 2190 2295 2416 1767 1842 2379 1006 2366 1836 1062 894 1328 1613 1415 1894 1101 1470 1106 975 1090 1792 1847 1036 1348 1216
0 0 0 0 0 2 126 175 235 593 722 1149 1000 1110 1176 1015 1076 1198 1240 1256 1418 1612 1856 2270 2417 2381 2698 2328 2131 1469 1452 1637 1465 910 1119 1347 1544 1765 1970 1638 1407 1806 1615 2121 2290 2252 1554 1717 1443
0 0 0 0 0 108 278 201 427 622 1199 1319 1247 1175 1199 1198 969 1108 1280 1367 1461 1665 1970 2224 2513 2558 2630 2130 2706 2582 1429 2042 1906 1104 1231 1293 1244 1406 1811 1912 1850 2092 2078 1408 1904 1634 1835 1674 1530
0 0 0 0 0 72 244 188 392 661 872 1404 1378 1463 1289 1272 1022 908 1014 1256 1341 1553 1787 2225 2600 2694 1895 2378 2188 2150 2398 1365 1224 996 718 966 1108 1405 1751 2088 2210 2511 1627 1933 1298 1557 1927 2131 2503
0 0 0 0 0 6 141 226 329 622 568 725 705 1135 1403 1354 1245 821 866 1102 1316 1277 1762 2220 2716 2913 2693 2654 2470 2726 1847 1092 1151 1271 1946 1589 1714 1808 2093 2269 2461 2434 1516 1988 1665 1566 1878 1981 1771
0 0 0 2 2 104 54 154 153 395 660 814 866 890 789 1264 1231 856 906 1138 1388 1476 1551 1798 2720 3040 2935 2770 2342 1994 1661 1629 1332 1312 2199 1195 1415 1030 2128 2118 2497 2455 2141 1961 1639 1838 1836 2067 1974
0 1 42 61 135 184 1 48 4 389 522 717 1078 1129 775 1012 1156 1013 1050 1352 1683 1889 1736 1881 2562 2873 2888 2818 2233 1878 1968 2232 1811 1447 1469 1074 1570 872 1748 2351 2406 2243 2858 1609 1861 2129 1898 1847 1985
8 1 31 30 122 144 34 101 212 345 474 787 1485 1328 777 1151 1190 1073 1266 1593 1699 1859 1974 1959 2064 2771 2753 2770 2720 2729 2606 3225 1944 1533 1111 1028 934 1197 1290 2061 1845 2105 2073 2111 2636 2809 1619 1758 1773
11 2 0 0 0 68 108 63 482 591 1004 1246 1335 1409 1546 1187 1214 1075 1359 1622 1774 2041 2070 2181 2014 2583 2773 2647 2864 2668 2563 2242 1700 1195 1336 1242 1347 1076 1740 2200 2167 1968 2285 2251 2301 3236 1833 2063 1993
0 0 7 14 37 82 98 50 180 723 1097 1279 1322 1439 1485 1347 1178 1214 1173 1267 1874 2072 2136 2011 2018 2524 2650 2526 2710 2654 2547 2618 2243 1760 1181 1292 1366 1608 1702 2276 2272 2435 2424 1959 2853 2294 1919 2317 1770
1 0 0 2 4 74 91 120 107 670 1161 1104 932 1342 1493 1407 1252 1106 1158 1557 2041 1909 1808 1903 2188 2045 2382 2408 2521 2540 2277 2104 2181 1882 1639 1256 1699 1821 1911 2120 1977 1925 1890 2102 2653 2805 2065 2185 1956
0 1 5 56 147 17 26 143 321 605 926 757 686 883 1224 1801 1299 1116 1193 1325 1623 1997 1787 1623 1684 1434 1889 2134 2506 2606 2617 2400 2139 1969 1711 1368 1610 2093 2156 2086 1790 2092 1890 2000 2110 1971 1584 2079 1993
CIN
-159 -128 -73 -28 -1 -0 -0 -2 -16 -0 -0 -13 -23 -7 -0 -8 -0 -3 -23 -13 -15 -11 -11 -0 -0 -0 -0 -0 -2 -5 -0 -0 -0 -0 -3 -2 -0 -0 -0 -0 -0 -0 -1 -3 -6 -11 -10 -3 -1
-135 -96 -41 -17 -0 -0 -0 -78 -24 -3 -11 -15 -20 -13 -0 -0 -21 -47 -27 -11 -4 -7 -9 -11 -0 -0 -0 -0 -0 -0 -0 -0 -0 -0 -0 -0 -0 -0 -0 -0 -0 -4 -4 -8 -6 -10 -8 -8 -8
-198 -140 -1 -4 -0 -0 -1 -26 -33 -47 -36 -11 -1 -8 -6 -4 -33 -23 -15 -14 -0 -0 -12 -0 -0 -1 -0 -0 -3 -3 -0 -0 -0 -0 -0 -0 -0 -0 -0 -0 -0 -1 -4 -6 -6 -5 -4 -5 -5
-92 -38 -17 -0 -0 -4 -0 -6 -4 -12 -11 -71 -5 -4 -35 -51 -25 -11 -22 -11 -2 -0 -3 -5 -2 -5 -0 -0 -2 -10 -3 -5 -3 -2 -2 -3 -0 -0 -0 -7 -4 -4 -7 -7 -7 -7 -3 -5 -3
-61 -35 -8 -20 -6 -2 -5 -13 -7 -25 -0 -26 -87 -15 -28 -31 -32 -17 -9 -0 -0 -0 -0 -0 -0 -0 -0 -0 -1 -0 -0 -0 -1 -0 -0 -5 -0 -1 -2 -1 -2 -6 -5 -7 -7 -10 -5 -4 -2
-37 -12 -0 -0 -33 -2 -3 -10 -1 -0 -1 -1 -9 -10 -16 -25 -12 -7 -0 -0 -0 -0 -0 -0 -0 -0 -0 -0 -0 -0 -0 -0 -3 -3 -2 -1 -0 -0 -0 -1 -4 -5 -2 -3 -2 -3 -4 -0 -0
-13 -31 -41 -0 -44 -21 -0 -4 -0 -0 -0 -0 -1 -0 -18 -12 -0 -1 -0 -0 -0 -0 -0 -0 -0 -0 -0 -0 -0 -0 -0 -0 -2 -0 -0 -0 -0 -0 -0 -4 -0 -13 -18 -11 -16 -2 -1 -3 -1
-0 -11 -0 -0 -2 -16 -1 -2 -4 -0 -0 -6 -3 -0 -4 -15 -4 -0 -0 -0 -0 -0 -0 -0 -0 -0 -0 -0 -0 -0 -0 -1 -0 -0 -0 -0 -0 -0 -0 -4 -1 -3 -11 -13 -12 -11 -6 -2 -4
-0 -0 -0 -0 -0 -3 -7 -0 -8 -10 -1 -0 -0 -0 -2 -35 -9 -0 -0 -0 -0 -0 -0 -0 -0 -0 -0 -0 -0 -0 -0 -0 -0 -0 -0 -0 -0 -0 -4 -1 -4 -11 -26 -19 -8 -8 -6 -8 -10
-0 -0 -0 -0 -4 -3 -5 -4 -7 -5 -0 -1 -9 -15 -18 -45 -13 -1 -0 -0 -0 -0 -0 -0 -0 -0 -0 -0 -0 -0 -1 -0 -0 -0 -0 -0 -0 -0 -2 -3 -3 -22 -35 -34 -21 -14 -20 -24 -0
-0 -0 -0 -7 -28 -9 -3 -4 -11 -6 -0 -0 -0 -13 -20 -35 -24 -3 -0 -0 -3 -0 -0 -0 -0 -0 -0 -0 -0 -0 -1 -0 -0 -0 -0 -0 -0 -0 -0 -0 -0 -17 -8 -1 -3 -4 -1 -0 -0
-0 -0 -0 -0 -23 -22 -10 -6 -7 -8 -1 -7 -0 -6 -11 -22 -14 -0 -1 -4 -4 -7 -3 -4 -0 -0 -0 -0 -0 -0 -0 -0 -0 -0 -0 -0 -0 -0 -1 -0 -0 -15 -6 -0 -0 -0 -0 -0 -0
-0 -0 -0 -0 -0 -23 -20 -12 -8 -10 -12 -23 -13 -12 -6 -0 -0 -0 -0 -0 -6 -5 -0 -0 -0 -0 -0 -0 -0 -0 -0 -0 -2 -0 -0 -0 -0 -0 -0 -1 -0 -8 -0 -0 -0 -0 -0 -0 -0
-0 -0 -0 -0 -10 -15 -15 -11 -29 -12 -21 -25 -20 -6 -0 -0 -0 -0 -0 -0 -1 -1 -0 -0 -0 -0 -0 -0 -0 -0 -0 -0 -0 -0 -0 -7 -0 -0 -0 -1 -0 -1 -7 -21 -0 -0 -0 -0 -0
-0 -0 -0 -0 -15 -9 -23 -15 -17 -9 -29 -28 -21 -2 -0 -0 -0 -0 -0 -0 -0 -0 -0 -0 -0 -0 -0 -0 -0 -0 -0 -0 -0 -0 -0 -1 -0 -0 -0 -0 -0 -0 -0 -0 -0 -0 -0 -0 -0
-0 -0 -0 -0 -19 -23 -25 -0 -0 -15 -25 -19 -23 -7 -0 -0 -0 -0 -0 -0 -0 -0 -0 -0 -0 -0 -0 -0 -0 -0 -0 -0 -0 -0 -0 -0 -0 -7 -0 -0 -0 -0 -0 -0 -0 -0 -2 -0 -0
-0 -0 -0 -0 -0 -0 -24 -2 -9 -30 -23 -12 -12 -11 -2 -0 -0 -0 -0 -0 -0 -0 -0 -0 -1 -0 -0 -0 -0 -0 -0 -0 -0 -0 -0 -0 -0 -2 -0 -0 -0 -3 -0 -0 -0 -0 -3 -0 -0
-0 -0 -0 -0 -0 -0 -2 -9 -7 -25 -30 -12 -13 -8 -5 -1 -1 -0 -0 -0 -0 -0 -0 -0 -0 -0 -0 -0 -0 -1 -0 -0 -0 -0 -0 -0 -0 -3 -1 -0 -1 -7 -2 -4 -0 -7 -0 -0 -0
-0 -0 -0 -0 -0 -41 -9 -11 -9 -19 -52 -28 -8 -2 -2 -0 -0 -0 -0 -0 -0 -0 -0 -0 -0 -0 -0 -0 -0 -2 -13 -0 -0 -0 -0 -0 -0 -0 -2 -0 -1 -9 -6 -1 -1 -0 -46 -0 -0
-0 -0 -0 -0 -0 -3 -9 -5 -23 -39 -35 -46 -23 -4 -3 -0 -0 -0 -0 -3 -5 -4 -5 -0 -0 -2 -0 -0 -0 -0 -0 -0 -0 -0 -0 -0 -0 -0 -0 -2 -0 -0 -0 -1 -0 -0 -0 -0 -0
-0 -0 -0 -0 -0 -23 -16 -0 -9 -52 -92 -72 -49 -28 -11 -3 -0 -0 -2 -2 -6 -7 -18 -12 -7 -2 -7 -0 -3 -2 -1 -0 -0 -0 -0 -0 -7 -4 -4 -3 -1 -0 -1 -0 -0 -0 -0 -0 -0
-0 -0 -0 -0 -0 -8 -14 -0 -3 -13 -25 -66 -58 -47 -26 -22 -8 -0 -0 -4 -5 -13 -19 -23 -22 -1 -14 -6 -0 -1 -0 -0 -0 -0 -1 -0 -5 -4 -1 -2 -0 -0 -0 -0 -0 -0 -0 -0 -1
-0 -0 -0 -0 -0 -0 -2 -0 -0 -11 -4 -14 -23 -30 -39 -29 -6 -2 -0 -0 -3 -23 -16 -26 -33 -10 -1 -8 -2 -5 -0 -0 -1 -0 -0 -0 -0 -1 -0 -0 -0 -0 -0 -0 -0 -0 -0 -0 -0
-0 -0 -0 -3 -10 -0 -1 -4 -4 -1 -23 -27 -18 -31 -38 -31 -15 -11 -4 -0 -18 -51 -100 -56 -26 -22 -11 -5 -4 -0 -5 -0 -0 -0 -0 -0 -3 -7 -0 -1 -0 -0 -0 -0 -0 -0 -0 -0 -0
-0 -0 -0 -0 -0 -0 -4 -9 -9 -13 -55 -78 -36 -33 -46 -56 -51 -24 -13 -17 -42 -35 -62 -34 -35 -14 -8 -7 -1 -10 -0 -0 -1 -0 -0 -0 -7 -12 -0 -0 -0 -0 -0 -0 -0 -0 -0 -0 -1
-0 -0 -0 -0 -0 -0 -10 -1 -0 -34 -78 -65 -25 -50 -99 -83 -81 -63 -29 -34 -48 -59 -43 -53 -110 -38 -7 -8 -4 -3 -0 -0 -0 -0 -0 -0 -0 -0 -1 -0 -0 -0 -1 -0 -0 -0 -0 -0 -0
-8 -0 -0 -0 -0 -0 -0 -0 -13 -7 -25 -17 -14 -14 -30 -91 -114 -75 -61 -47 -65 -65 -87 -61 -85 -37 -15 -13 -2 -5 -0 -0 -0 -0 -0 -0 -0 -0 -0 -0 -0 -0 -0 -0 -0 -0 -0 -0 -0
-0 -0 -0 -0 -0 -0 -0 -0 -0 -3 -6 -11 -11 -14 -22 -54 -123 -93 -75 -59 -55 -45 -65 -90 -69 -18 -21 -16 -5 -5 -8 -1 -0 -0 -0 -0 -0 -0 -0 -0 -0 -0 -0 -0 -1 -0 -0 -0 -0
-0 -0 -0 -0 -0 -0 -0 -0 -6 -8 -13 -25 -25 -35 -33 -49 -83 -92 -93 -71 -48 -30 -92 -79 -72 -50 -18 -23 -19 -7 -0 -0 -0 -0 -0 -0 -0 -0 -0 -1 -0 -0 -0 -1 -0 -2 -7 -2 -0
-0 -0 -1 -0 -0 -2 -4 -0 -12 -16 -36 -65 -52 -67 -50 -47 -80 -120 -86 -76 -66 -54 -85 -127 -105 -121 -51 -30 -10 -6 -2 -0 -0 -0 -0 -1 -0 -0 -0 -0 -0 -0 -0 -0 -1 -4 -0 -0 -0
Wind_Speed
9 9 7 9 12 8 5 9 9 4 8 5 6 5 10 8 8 6 15 11 18 18 16 13 13 14 3 4 3 8 11 14 15 11 11 13 12 11 10 10 9 11 13 8 6 9 8 7 4
5 6 7 6 7 5 7 7 2 4 1 7 8 4 4 7 8 11 16 17 19 17 15 12 10 8 7 4 3 8 11 15 16 15 8 10 10 9 11 12 10 11 9 8 10 10 8 7 5
9 8 7 4 4 3 3 nan 5 9 4 3 8 4 2 4 4 17 16 21 18 14 11 11 11 9 10 6 6 8 9 11 12 11 9 10 10 11 14 12 10 11 11 10 6 8 9 7 6
4 6 7 3 10 8 9 11 11 10 5 4 4 6 7 2 13 10 20 20 17 13 12 9 10 9 9 8 8 8 8 10 10 10 8 9 11 12 14 8 6 7 7 7 6 8 10 8 7
2 4 8 13 13 12 9 8 12 5 6 9 nan 7 6 9 11 17 21 18 15 13 8 9 7 7 6 6 9 7 9 11 10 8 9 9 9 9 11 8 8 4 3 5 6 8 9 7 6
nan 5 nan nan nan 12 8 7 10 8 12 13 11 11 12 15 19 21 20 16 14 11 5 8 6 5 4 8 9 10 10 10 8 6 4 6 9 10 9 10 13 14 3 5 6 7 8 8 8
nan 4 nan nan nan 10 8 9 7 8 12 10 9 12 15 17 22 22 18 15 12 10 8 5 6 5 2 7 8 9 9 11 9 4 5 8 11 10 10 13 15 11 3 3 2 7 8 7 7
nan 9 nan nan nan 12 11 11 7 5 12 10 9 13 14 21 24 20 17 14 11 6 6 3 5 7 6 6 8 8 10 14 11 7 8 11 12 12 15 18 14 6 2 2 1 5 8 9 10
nan nan nan nan nan 9 9 9 9 8 13 9 13 10 17 26 23 19 17 15 9 4 4 5 3 4 6 2 4 7 9 7 8 11 10 15 19 17 14 14 13 10 9 5 6 6 9 9 13
nan nan nan nan nan 7 9 7 11 10 13 13 15 16 21 24 23 21 19 14 11 9 7 4 5 5 2 5 4 5 6 8 9 7 9 16 11 10 9 10 17 17 17 nan 13 13 11 15 12
nan nan nan nan nan 3 9 10 10 6 7 10 16 18 21 27 25 22 17 15 11 9 4 2 3 3 1 4 3 3 2 6 4 5 10 14 9 9 9 10 12 12 15 15 15 16 13 11 9
nan nan nan nan nan 9 5 9 10 5 8 13 9 16 20 24 24 19 16 16 13 8 5 4 3 2 3 3 3 2 1 4 6 3 8 6 10 7 6 15 12 8 12 13 11 11 8 10 8
nan nan nan nan nan 11 8 6 5 7 8 11 9 18 18 18 17 16 13 12 9 6 5 4 2 2 3 4 2 4 2 2 6 2 5 7 8 9 11 12 14 11 15 12 9 10 9 8 10
nan nan nan nan nan 13 13 7 7 12 15 15 14 15 17 17 17 14 11 9 9 5 5 5 4 5 3 3 3 3 3 2 2 2 2 6 8 6 8 11 11 9 13 12 10 9 9 8 8
nan nan nan nan nan 10 9 9 8 11 17 17 17 13 16 17 17 14 11 8 8 6 4 2 5 6 4 2 2 0 3 1 1 3 2 6 7 3 8 6 9 8 9 13 11 7 8 9 8
nan nan nan nan nan 11 12 nan 15 18 17 17 19 18 15 16 14 13 10 8 8 5 6 4 5 7 7 6 4 6 5 3 1 1 1 3 6 6 5 3 7 7 9 9 10 6 3 7 6
nan nan nan nan nan nan 12 4 14 16 17 17 19 20 18 17 15 14 9 6 7 7 8 8 8 7 9 9 8 8 6 8 2 1 3 2 4 4 7 5 5 7 6 6 5 5 8 5 6
nan nan nan nan nan nan nan nan nan 20 13 15 18 21 22 17 20 18 15 9 7 8 8 8 10 8 10 12 9 14 8 8 4 2 3 5 3 4 4 4 4 7 5 6 4 5 7 8 4
nan nan nan nan nan nan nan nan 5 15 18 16 16 21 23 20 22 20 16 13 8 7 9 9 9 12 10 12 12 14 4 7 6 3 4 6 5 1 2 4 2 5 8 8 6 6 4 8 4
nan nan nan nan nan nan 9 9 15 4 14 13 11 14 20 19 20 21 16 13 11 8 8 8 8 13 9 12 10 10 9 6 7 7 7 6 5 3 1 3 2 2 4 6 6 5 3 5 3
nan nan nan nan nan 7 9 8 2 6 7 8 9 10 15 19 18 20 19 12 10 11 11 10 9 13 10 5 15 14 13 10 10 8 7 6 4 3 2 1 3 1 5 5 5 5 4 1 2
nan nan nan nan nan nan 4 4 5 3 11 12 8 11 13 19 13 13 17 14 10 10 11 9 10 10 13 10 12 12 10 10 10 11 7 7 5 4 2 1 2 3 4 4 4 5 3 2 1
nan nan nan nan nan nan 10 13 15 12 10 5 7 11 16 19 15 12 11 13 12 10 14 14 13 12 12 11 12 14 11 11 11 10 10 6 9 6 3 4 3 3 4 2 2 4 2 1 2
nan nan nan nan nan 8 nan 10 3 5 4 11 4 8 14 19 12 11 12 8 10 13 10 12 13 12 13 12 10 12 10 9 11 11 12 9 9 5 3 4 4 2 3 4 4 1 2 2 3
nan nan nan nan 10 8 nan nan nan 6 5 4 6 4 9 14 16 11 7 7 10 14 15 14 12 12 8 12 10 10 9 9 9 7 3 5 8 5 7 5 4 3 8 6 6 5 1 2 0
nan nan nan nan 2 9 nan 3 11 7 9 12 6 4 6 10 22 7 13 14 17 14 20 19 26 20 12 10 10 7 9 13 8 6 4 5 6 5 10 8 6 5 5 9 6 3 2 2 2
nan nan nan nan nan nan 13 nan 28 16 14 10 8 11 10 18 17 21 17 14 20 21 17 25 27 6 6 7 8 9 12 9 10 10 7 8 9 10 9 7 7 8 8 6 3 5 5 3 5
nan nan nan nan nan nan nan nan 17 16 18 11 8 5 6 9 24 19 18 19 16 20 20 19 24 8 6 6 8 9 9 11 10 9 8 9 11 10 10 7 9 9 10 5 4 8 13 7 7
nan nan nan nan nan nan nan 11 23 13 15 13 13 8 6 7 18 16 13 14 14 12 14 14 15 9 7 6 8 6 7 9 9 9 10 9 10 11 10 9 9 8 10 10 11 9 11 8 9
nan nan nan nan 15 nan nan 9 23 21 19 15 12 9 12 10 13 13 8 11 11 9 13 8 10 10 13 3 5 6 6 7 6 7 9 9 9 11 11 9 7 7 7 10 11 11 14 12 10
Wind_Direction
46 51 70 38 35 25 248 213 149 358 15 42 54 113 187 182 185 213 317 336 323 321 314 343 356 357 320 247 330 346 355 2 14 6 12 27 31 36 36 30 39 33 24 19 25 20 12 341 339
127 64 41 33 40 336 224 203 185 271 343 18 10 33 107 222 227 307 327 346 337 317 325 331 343 341 356 74 347 332 337 354 1 14 24 22 30 27 30 30 42 66 68 28 51 50 29 4 16
114 80 78 57 42 248 225 nan 309 333 138 74 14 71 156 229 267 330 320 346 341 319 331 312 343 357 354 352 8 342 344 353 357 10 26 26 30 30 39 39 49 63 64 63 57 57 61 60 45
132 23 32 248 266 263 287 326 315 339 359 347 346 318 320 199 334 334 336 349 342 321 342 306 359 16 30 42 24 16 21 9 360 6 14 24 35 39 46 31 57 70 68 63 46 57 59 60 67
61 67 291 275 272 281 281 283 303 309 351 323 nan 322 314 310 309 328 342 358 343 327 306 336 10 26 38 38 33 20 20 14 1 10 19 33 46 50 28 17 13 343 44 69 64 54 60 62 75
nan 85 nan nan nan 279 291 300 331 330 325 309 315 290 295 314 322 332 345 356 348 332 314 331 1 12 61 53 30 25 13 6 4 29 41 44 52 52 40 25 0 332 20 79 70 57 67 53 91
nan 151 nan nan nan 285 282 313 332 322 336 327 310 290 299 319 323 331 344 348 341 351 308 327 360 5 140 73 38 32 21 9 350 341 73 75 60 62 38 19 5 12 117 5 150 51 61 70 75
nan 83 nan nan nan 269 287 319 308 343 306 286 333 308 324 317 324 329 338 342 340 340 300 345 5 19 129 97 60 34 28 29 30 93 88 74 80 66 47 46 52 18 65 347 108 82 62 61 66
nan nan nan nan nan 258 290 315 309 309 328 326 310 284 290 313 327 330 333 340 338 334 355 1 27 45 128 106 9 29 35 25 68 72 78 86 79 35 19 40 3 45 44 106 104 87 74 64 48
nan nan nan nan nan 266 281 297 305 338 339 328 313 293 308 329 339 337 340 336 356 352 22 36 32 348 135 162 309 49 28 61 83 75 87 93 73 69 74 26 35 56 55 nan 87 73 71 60 47
nan nan nan nan nan 340 261 284 287 309 319 324 329 321 321 339 337 333 336 347 360 352 350 11 53 238 121 145 92 53 60 85 84 89 80 93 68 52 49 72 56 53 63 70 61 35 56 67 81
nan nan nan nan nan 347 320 269 272 279 253 249 278 326 323 334 344 342 339 340 343 354 352 3 355 163 154 164 111 50 74 100 110 38 88 87 72 70 73 72 70 54 65 71 85 75 65 72 63
nan nan nan nan nan 22 343 338 291 271 259 267 281 314 325 327 340 341 332 339 344 345 357 341 314 186 180 152 97 78 70 66 92 115 65 96 88 65 83 74 75 73 70 65 57 69 64 53 60
nan nan nan nan nan 12 29 18 323 289 282 282 292 311 319 329 335 342 328 335 349 353 338 317 295 264 189 161 158 192 124 108 136 89 97 85 95 91 84 73 67 64 62 80 75 52 69 58 66
nan nan nan nan nan 5 37 23 19 295 292 287 293 296 311 322 327 339 325 332 338 7 339 318 304 270 229 228 252 246 320 161 58 103 117 98 92 70 105 81 117 87 88 70 56 47 66 78 42
nan nan nan nan nan 329 18 nan 316 305 304 298 299 302 309 322 331 338 331 322 316 334 338 323 280 285 274 260 250 246 165 213 340 37 134 87 104 106 69 143 114 116 81 82 60 44 55 68 64
nan nan nan nan nan nan 3 67 295 316 315 308 303 309 319 325 328 321 327 303 301 326 312 320 307 298 289 277 256 238 231 235 312 340 178 251 113 99 123 110 155 99 87 76 79 63 75 41 60
nan nan nan nan nan nan nan nan nan 322 328 315 317 319 315 330 332 326 321 310 307 313 325 318 302 297 285 262 251 237 212 245 202 247 203 215 169 135 140 139 155 107 84 69 53 90 122 132 121
nan nan nan nan nan nan nan nan 236 345 353 9 350 328 322 321 326 324 319 313 307 309 318 322 324 311 287 270 265 259 261 254 273 266 219 200 178 188 159 143 180 113 91 82 61 27 23 101 104
nan nan nan nan nan nan 195 175 280 275 359 5 28 9 342 328 317 315 314 313 311 315 325 319 350 327 313 268 247 244 255 252 288 260 238 197 208 211 226 127 141 119 89 61 39 19 57 53 21
nan nan nan nan nan 16 155 324 305 325 19 39 45 33 1 349 334 325 329 321 316 321 324 329 346 326 317 299 249 228 242 245 259 267 242 227 205 196 181 99 115 5 91 68 49 51 71 312 350
nan nan nan nan nan nan 189 192 260 318 339 354 15 20 8 357 0 1 350 342 323 307 298 313 328 323 319 317 281 280 260 274 284 278 260 227 221 220 205 324 29 19 86 142 69 46 120 343 326
nan nan nan nan nan nan 339 73 314 12 343 346 350 15 10 7 4 20 11 319 298 285 303 310 313 312 306 299 299 282 269 269 264 274 272 204 222 208 273 306 322 326 32 355 84 102 81 50 73
nan nan nan nan nan 32 nan 112 308 272 351 18 47 31 24 16 25 28 13 316 312 295 261 303 310 309 308 307 292 288 288 263 275 278 258 213 215 217 260 291 292 306 304 329 326 225 317 172 163
nan nan nan nan 337 247 nan nan nan 314 294 360 50 74 28 5 348 357 358 338 325 324 340 333 311 274 300 306 295 294 288 281 281 282 225 249 245 209 280 279 294 319 316 315 303 274 300 358 122
nan nan nan nan 228 238 nan 266 284 333 6 24 12 9 0 355 355 26 355 355 360 347 348 324 314 300 326 317 308 294 269 256 260 278 255 244 264 267 270 298 296 298 298 320 287 257 151 337 358
nan nan nan nan nan nan 262 nan 298 296 325 342 357 351 331 334 10 10 5 11 358 359 346 347 342 323 350 333 303 284 256 252 251 256 264 251 249 257 270 283 293 308 303 334 285 305 4 290 315
nan nan nan nan nan nan nan nan 253 266 289 288 277 276 270 322 355 3 17 21 10 359 352 345 1 336 4 350 322 280 258 264 253 260 266 274 279 278 274 297 287 290 286 305 308 304 314 305 307
nan nan nan nan nan nan nan 282 269 258 255 271 274 255 274 300 342 348 358 14 11 12 329 336 348 354 15 9 325 292 252 261 270 265 269 271 273 275 281 269 272 282 285 286 282 272 274 289 302
nan nan nan nan 313 nan nan 244 264 258 266 260 269 280 272 285 336 347 344 6 17 357 320 321 318 352 10 329 325 332 292 267 276 266 274 284 285 286 279 276 268 272 296 290 281 271 258 291 308